Location: Peterborough
(44.3091°N, 78.3197°W)
Time: 17:37:29
(UTC-04:00)

Explorer 7 - Pass Details

Date: 23 March 2023
Orbit: 477 x 653 km, 50.3° (Epoch: 04 June)

Event Time Altitude Azimuth Distance (km) Brightness Sun altitude
Rises 23:06:41 0° 296° (WNW) 2,725 11.2 -35.6°
Reaches altitude 10° 23:09:01 10° 301° (WNW) 1,797 10.1 -35.9°
Enters shadow 23:09:16 11° 302° (WNW) 1,701 10.0 -35.9°
Maximum altitude 23:13:01 54° 20° (NNE) 630 - -36.4°
Drops below altitude 10° 23:16:47 10° 99° (E) 1,699 - -36.8°
Sets 23:18:57 0° 104° (ESE) 2,559 - -37.1°
